Date String (YYYY-MM-DD hh:mm:ss) UTC,Instrument flags,Ambient pressure (hPa),Sample flow (lpm),Bypass flow (lpm),Sample temperature (°C),Ambient temperature (°C),ASC tube jacket temperature (°C),LED temperature (°C),Box temperature (°C),Sample RH (%),Span deviation,Mass concentration (μg/m³),Mass concentration (μg/m³),Mass concentration (μg/m³)
DateTimeUTC,F1_M11,P_M11,Q1_M11,Q2_M11,T1_M11,T2_M11,T3_M11,T4_M11,T5_M11,U1_M11,ZSPAN_M11,X0_M11,X2_M11,X1_M11
2022-04-23 16:00:00,,0811.5,4.98,0.00,23.0,21.9,00.0,32.0,24.7,10.6,0000.0,0007.08,0000.78,0000.12
2022-04-23 16:01:00,,0811.5,5.01,0.00,23.0,21.9,00.0,32.0,24.7,10.4,0000.0,0007.10,0000.79,0000.12
2022-04-23 16:02:00,,0811.4,5.01,0.00,23.0,22.0,00.0,32.0,24.8,10.6,0000.0,0005.72,0000.70,0000.11
2022-04-23 16:03:00,,0811.2,4.99,0.00,23.0,22.0,00.0,32.0,24.8,10.6,0000.0,0003.76,0000.57,0000.11
2022-04-23 16:04:00,,0811.3,5.00,0.00,23.0,22.0,00.0,32.0,24.8,10.3,0000.0,0003.32,0000.44,0000.10
2022-04-23 16:05:00,,0811.3,5.02,0.00,23.0,22.0,00.0,32.0,24.8,10.1,0000.0,0003.39,0000.37,0000.09
2022-04-23 16:06:00,,0811.4,4.99,0.00,23.0,22.0,00.0,32.0,24.8,10.3,0000.0,0003.33,0000.36,0000.09
2022-04-23 16:07:00,,0811.5,5.00,0.00,22.9,22.0,00.0,32.0,24.7,10.2,0000.0,0003.35,0000.36,0000.09
2022-04-23 16:08:00,,0811.7,5.01,0.00,23.0,22.0,00.0,32.0,24.7,10.3,0000.0,0003.55,0000.41,0000.10
2022-04-23 16:09:00,,0811.7,5.00,0.00,23.0,22.0,00.0,32.0,24.7,10.2,0000.0,0004.55,0000.43,0000.10
2022-04-23 16:10:00,,0811.6,5.00,0.00,23.0,22.0,00.0,32.0,24.7,10.1,0000.0,0005.39,0000.41,0000.10
2022-04-23 16:11:00,,0811.6,4.99,0.00,23.0,22.0,00.0,32.0,24.8,09.7,0000.0,0005.50,0000.40,0000.10
2022-04-23 16:12:00,,0811.7,5.01,0.00,23.0,21.9,00.0,32.0,24.8,09.4,0000.0,0005.46,0000.39,0000.10
2022-04-23 16:13:00,,0811.7,4.99,0.00,23.0,21.9,00.0,32.0,24.8,09.9,0000.0,0005.54,0000.43,0000.10
2022-04-23 16:14:00,,0811.9,4.99,0.00,23.0,21.9,00.0,32.0,24.8,09.7,0000.0,0005.08,0000.43,0000.10
2022-04-23 16:15:00,,0811.9,5.01,0.00,23.0,21.9,00.0,32.0,24.8,09.6,0000.0,0003.85,0000.43,0000.10
2022-04-23 16:16:00,,0811.8,5.00,0.00,23.1,21.9,00.0,32.0,24.8,09.8,0000.0,0003.41,0000.44,0000.10
2022-04-23 16:17:00,,0811.8,5.00,0.00,23.1,21.9,00.0,32.0,24.8,10.0,0000.0,0003.49,0000.47,0000.10
2022-04-23 16:18:00,,0811.7,5.00,0.00,23.1,22.0,00.0,32.0,24.9,09.6,0000.0,0003.61,0000.50,0000.11
2022-04-23 16:19:00,,0811.8,5.00,0.00,23.1,22.0,00.0,32.0,24.9,10.0,0000.0,0003.49,0000.48,0000.11
2022-04-23 16:20:00,,0811.8,4.99,0.00,23.1,22.0,00.0,32.1,24.9,09.8,0000.0,0002.64,0000.44,0000.10
2022-04-23 16:21:00,,0812.0,5.01,0.00,23.1,22.0,00.0,32.1,24.9,09.9,0000.0,0001.51,0000.45,0000.10
2022-04-23 16:22:00,,0812.0,4.99,0.00,23.1,22.0,00.0,32.1,24.9,09.9,0000.0,0001.38,0000.46,0000.11
2022-04-23 16:23:00,,0812.1,5.01,0.00,23.2,22.0,00.0,32.1,24.9,09.7,0000.0,0001.31,0000.44,0000.11
2022-04-23 16:24:00,,0812.0,5.00,0.00,23.2,22.0,00.0,32.1,24.9,09.8,0000.0,0001.25,0000.42,0000.11
2022-04-23 16:25:00,,0812.0,4.99,0.00,23.2,22.0,00.0,32.1,24.9,10.0,0000.0,0001.17,0000.40,0000.11
2022-04-23 16:26:00,,0812.0,5.01,0.00,23.2,22.1,00.0,32.1,25.0,10.1,0000.0,0000.96,0000.38,0000.11
2022-04-23 16:27:00,,0812.2,5.01,0.00,23.2,22.1,00.0,32.1,24.9,09.9,0000.0,0000.93,0000.37,0000.12
2022-04-23 16:28:00,,0812.1,4.99,0.00,23.2,22.1,00.0,32.1,24.9,09.7,0000.0,0000.75,0000.31,0000.12
2022-04-23 16:29:00,,0812.0,4.99,0.00,23.1,22.1,00.0,32.1,24.9,09.8,0000.0,0000.55,0000.26,0000.12
2022-04-23 16:30:00,,0811.9,5.01,0.00,23.1,22.1,00.0,32.1,24.9,10.0,0000.0,0000.49,0000.25,0000.13
2022-04-23 16:31:00,,0811.6,4.98,0.00,23.1,22.1,00.0,32.1,24.9,10.0,0000.0,0000.51,0000.25,0000.13
2022-04-23 16:32:00,,0811.8,4.99,0.00,23.1,22.1,00.0,32.1,24.9,10.0,0000.0,0000.91,0000.22,0000.14
2022-04-23 16:33:00,,0811.9,5.00,0.00,23.1,22.1,00.0,32.1,24.9,10.2,0000.0,0001.83,0000.21,0000.14
2022-04-23 16:34:00,,0811.9,5.01,0.00,23.1,22.1,00.0,32.1,24.9,10.2,0000.0,0001.92,0000.22,0000.14
2022-04-23 16:35:00,,0811.8,5.01,0.00,23.1,22.1,00.0,32.1,24.9,10.0,0000.0,0001.92,0000.22,0000.14
2022-04-23 16:36:00,,0812.0,5.00,0.00,23.1,22.1,00.0,32.1,24.9,09.9,0000.0,0002.02,0000.26,0000.15
2022-04-23 16:37:00,,0811.9,5.00,0.00,23.1,22.2,00.0,32.1,24.9,10.0,0000.0,0002.11,0000.28,0000.15
2022-04-23 16:38:00,,0811.9,5.00,0.00,23.1,22.2,00.0,32.1,24.9,10.1,0000.0,0002.10,0000.27,0000.15
2022-04-23 16:39:00,,0811.9,5.00,0.00,23.0,22.2,00.0,32.1,24.9,10.1,0000.0,0003.20,0000.28,0000.14
2022-04-23 16:40:00,,0811.9,5.00,0.00,23.0,22.2,00.0,32.1,24.9,10.2,0000.0,0003.34,0000.29,0000.14
2022-04-23 16:41:00,,0812.0,5.00,0.00,23.1,22.2,00.0,32.1,24.9,10.3,0000.0,0003.95,0000.31,0000.14
2022-04-23 16:42:00,,0812.0,5.02,0.00,23.1,22.2,00.0,32.1,24.9,10.4,0000.0,0004.18,0000.32,0000.13
2022-04-23 16:43:00,,0812.0,4.99,0.00,23.1,22.1,00.0,32.1,24.9,10.4,0000.0,0004.15,0000.33,0000.12
2022-04-23 16:44:00,,0812.0,4.99,0.00,23.1,22.1,00.0,32.1,24.9,09.9,0000.0,0002.91,0000.37,0000.12
2022-04-23 16:45:00,,0811.8,5.01,0.00,23.1,22.1,00.0,32.1,24.8,09.8,0000.0,0002.90,0000.41,0000.13
2022-04-23 16:46:00,,0811.9,5.00,0.00,23.1,22.1,00.0,32.1,24.9,09.9,0000.0,0003.18,0000.46,0000.13
2022-04-23 16:47:00,,0811.9,4.99,0.00,23.0,22.1,00.0,32.1,24.8,10.1,0000.0,0003.18,0000.45,0000.13
2022-04-23 16:48:00,,0812.0,5.00,0.00,23.0,22.1,00.0,32.1,24.8,10.2,0000.0,0003.27,0000.49,0000.13
2022-04-23 16:49:00,,0811.9,5.01,0.00,23.0,22.1,00.0,32.1,24.8,10.2,0000.0,0003.34,0000.53,0000.13
2022-04-23 16:50:00,,0811.8,4.98,0.00,23.0,22.1,00.0,32.1,24.8,10.2,0000.0,0002.33,0000.52,0000.13
2022-04-23 16:51:00,,0811.9,5.01,0.00,23.0,22.1,00.0,32.1,24.8,10.0,0000.0,0002.36,0000.55,0000.13
2022-04-23 16:52:00,,0812.0,4.99,0.00,23.0,22.1,00.0,32.1,24.8,10.1,0000.0,0002.06,0000.54,0000.13
2022-04-23 16:53:00,,0812.0,5.01,0.00,23.0,22.1,00.0,32.1,24.8,10.4,0000.0,0002.19,0000.59,0000.13
2022-04-23 16:54:00,,0812.0,5.01,0.00,23.0,22.1,00.0,32.1,24.8,10.5,0000.0,0002.35,0000.62,0000.14
2022-04-23 16:55:00,,0811.9,4.99,0.00,23.0,22.1,00.0,32.1,24.8,10.3,0000.0,0002.56,0000.63,0000.13
2022-04-23 16:56:00,,0811.8,5.00,0.00,23.0,22.1,00.0,32.1,24.8,10.3,0000.0,0002.67,0000.62,0000.13
2022-04-23 16:57:00,,0811.9,5.01,0.00,23.0,22.1,00.0,32.1,24.8,10.3,0000.0,0003.24,0000.60,0000.13
2022-04-23 16:58:00,,0812.0,4.99,0.00,23.0,22.0,00.0,32.0,24.8,10.3,0000.0,0003.37,0000.64,0000.14
2022-04-23 16:59:00,,0812.0,5.00,0.00,23.0,22.0,00.0,32.0,24.8,10.1,0000.0,0003.38,0000.65,0000.15
